NOAA 16 DEB, 41377

Orbit data source: Space-Track

NOAA 16 DEB, 41377 is space debris in SSO originally from a launch on Thu, 21 Sep 2000 UTC launched from the Air Force Western Test Range (AFWTR). Debris objects in space refer to the collection of defunct objects orbiting the Earth. Examples of debris include non-operational satellites, rocket bodies, and fragments generated from explosions, collisions, or faulty payload assembly.

Loading next visibility...
Identifier
41377, 2000-055JW
Orbit
SSO
Country
Flag of USUS
Related business
Manufacturer
Unknown
Mission
Spacecraft
Bus & Motor
Unknown
Mass
Unknown
Launch date (UTC)
2000-09-21 (25 years ago)
Launch vehicle
Unknown
Launch site
Air Force Western Test Range (AFWTR)
Object type
Payload
Rocket body
Debris
Shape & HBR
Unknown shape, 0.1 m
Radar Cross Section
Small (<0.1 m²)

Expand to show TLE details & history
Last TLE update: 4 days ago

TLE from 4 days ago
0 NOAA 16 DEB
1 41377U 00055JW  25290.52728155  .00006480  00000-0  25472-2 0  9995
2 41377  98.8235  33.9285 0019134 347.7455  12.3259 14.29502042504912
Epoch: 2025-10-17T12:39Z
TLE epoch observation values (Epoch: 2025-10-17T12:39:17.125Z)
Latitude
-0°
Longitude
177.83577°
Altitude
782.912 km
Speed
7.469 km/s
True Right ascension
02h 15m 42s
True Declination
0° 00' 00"
Sunlit
Object was in full shadow at epoch
Visualization orbit readout
Latitude
Unknown
Longitude
Unknown
Altitude
Unknown
Speed
Unknown
Apparent Right ascension
Unknown
Apparent Declination
Unknown
Sunlit
N/A
Visualization observer readout
Local Sidereal Time
09:04:25
Azimuth
Unknown
Elevation
Unknown
Doppler factor
Unknown
Orbital elements
Apogee altitude
804.264 km
Perigee altitude
776.831 km
Semi-major axis
7,168.684 km
Eccentricity
0.00191
Inclination
98.8235°
RAAN
33.9285°
Arg. of periapsis
347.7455°
True anomaly
12.37282°
Mean anomaly
12.3259°
Eccentric anomaly
12.34935°
Mean motion
3.57589 °/min
Orbital period
100.67 mins
BSTAR
0.0025472
Loading maneuver chart data...
Computing Atmospheric mass density...

Documentation

Showing up to 5 results
|